Location: Bu�n Treun
(12.1333°N, 108.3167°E)
Time: 23:16:59
(UTC+00:00)

SWIFT - Pass Details

Date: 13 July 2020
Orbit: 545 x 560 km, 20.6° (Epoch: 14 August)

Event Time Altitude Azimuth Distance (km) Brightness Sun altitude
Rises 12:00:32 0° 238° (WSW) 2,686 6.3 -10.8°
Reaches altitude 10° 12:02:53 10° 231° (SW) 1,793 5.3 -11.3°
Maximum altitude 12:06:51 43° 159° (SSE) 763 2.7 -12.2°
Enters shadow 12:09:35 18° 95° (E) 1,355 3.7 -12.8°
